Garden City, KS

12:20 AM CDT on March 24, 2017 (GMT -0500)
Garden City Regional

Weather History for KGCK - September, 2014

Change the Weather History Date:

Tuesday, September 2, 2014

  Actual Average Record
Temperature  
Mean Temperature 74 °F 74 °F  
Max Temperature 83 °F 87 °F 104 °F (2012)
Min Temperature 64 °F 60 °F 45 °F (1974)
Degree Days  
Heating Degree Days 0 0  
Month to date heating degree days 0 0  
Since 1 July heating degree days 10 4  
Cooling Degree Days 9 9  
Month to date cooling degree days 15 18  
Year to date cooling degree days 1175 1134  
Growing Degree Days 23 (Base 50)    
Moisture  
Dew Point 64 °F    
Average Humidity 76    
Maximum Humidity 100    
Minimum Humidity 51    
Precipitation  
Precipitation T in 0.05 in 2.30 in (1996)
Month to date precipitation T 0.11  
Year to date precipitation 17.65 15.76  
Sea Level Pressure  
Sea Level Pressure 29.94 in    
Wind  
Wind Speed 10 mph (East)    
Max Wind Speed 17 mph    
Max Gust Speed 22 mph    
Visibility 8 miles    
Events      
T = Trace of Precipitation, MM = Missing Value Source: NWS Daily Summary

Daily Weather History Graph

Daily Weather History Graph

Search for Another Location

Airport or City:

Trip Planner

Search our weather history database for the weather conditions in past years. The results will help you decide how hot, cold, wet, or windy it might be!

Date:

Astronomy

Sep. 02, 2014 Rise Set
Actual Time 7:13 AM CDT 8:10 PM CDT
Civil Twilight 6:46 AM CDT 8:37 PM CDT
Nautical Twilight 6:14 AM CDT 9:09 PM CDT
Astronomical Twilight 5:41 AM CDT 9:42 PM CDT
Moon 2:52 PM CDT (9/2) 12:21 AM CDT (9/2)
Length of Visible Light 13h 50m
Length of Day
12h 57m
First Quarter, 53% of the Moon is Illuminated
Sep 2
First Quarter
Sep 8
Full
Sep 15
Last Quarter
Sep 24
New
Oct 1
First Quarter

Hourly Weather History & Observations

Time (CDT) Temp. Heat Index Dew Point Humidity Pressure Visibility Wind Dir Wind Speed Gust Speed Precip Events Conditions
12:54 AM 64.9 °F - 62.1 °F 90% 29.89 in 9.0 mi ENE 10.4 mph - N/A   Clear
1:54 AM 64.9 °F - 62.1 °F 90% 29.88 in 7.0 mi ENE 9.2 mph - N/A   Clear
2:54 AM 64.0 °F - 62.1 °F 93% 29.89 in 7.0 mi East 4.6 mph - N/A   Overcast
3:54 AM 64.9 °F - 63.0 °F 93% 29.86 in 7.0 mi SE 4.6 mph - N/A   Mostly Cloudy
4:47 AM 64.0 °F - 63.0 °F 96% 29.97 in 6.0 mi NNE 15.0 mph 19.6 mph 0.00 in   Scattered Clouds
4:54 AM 64.9 °F - 63.0 °F 93% 29.88 in 6.0 mi NNE 17.3 mph 21.9 mph 0.00 in   Mostly Cloudy
5:18 AM 64.0 °F - 63.0 °F 96% 29.99 in 6.0 mi NE 10.4 mph - N/A   Overcast
5:54 AM 64.9 °F - 63.0 °F 93% 29.92 in 5.0 mi ENE 12.7 mph - N/A   Mostly Cloudy
6:20 AM 64.9 °F - 64.0 °F 97% 30.03 in 5.0 mi ENE 11.5 mph - N/A   Overcast
6:54 AM 64.9 °F - 64.0 °F 97% 29.94 in 5.0 mi ENE 12.7 mph - N/A   Overcast
7:15 AM 64.9 °F - 64.0 °F 97% 30.03 in 6.0 mi ENE 11.5 mph - N/A   Overcast
7:54 AM 64.9 °F - 64.0 °F 97% 29.95 in 4.0 mi NE 12.7 mph - N/A   Overcast
8:54 AM 66.0 °F - 64.0 °F 93% 29.96 in 5.0 mi NE 11.5 mph - N/A   Overcast
9:54 AM 68.0 °F - 64.0 °F 87% 29.97 in 6.0 mi NE 11.5 mph - N/A   Overcast
10:03 AM 69.1 °F - 64.9 °F 87% 30.04 in 7.0 mi NNE 13.8 mph - N/A   Overcast
10:43 AM 73.0 °F - 64.9 °F 76% 30.05 in 10.0 mi NE 8.1 mph - N/A   Mostly Cloudy
10:54 AM 72.0 °F - 64.9 °F 78% 29.97 in 10.0 mi ENE 4.6 mph - N/A   Mostly Cloudy
11:09 AM 73.9 °F - 64.9 °F 73% 30.05 in 10.0 mi East 5.8 mph - N/A   Mostly Cloudy
11:54 AM 77.0 °F - 64.9 °F 66% 29.97 in 10.0 mi ESE 9.2 mph - N/A   Mostly Cloudy
12:11 PM 78.1 °F - 66.0 °F 66% 30.05 in 10.0 mi ESE 11.5 mph - N/A   Mostly Cloudy
12:54 PM 75.0 °F - 64.9 °F 71% 29.98 in 10.0 mi ESE 15.0 mph - N/A   Overcast
1:16 PM 73.0 °F - 64.9 °F 76% 30.06 in 3.0 mi SE 13.8 mph - N/A   Haze
1:54 PM 72.0 °F - 64.9 °F 78% 29.97 in 10.0 mi SE 13.8 mph - N/A   Overcast
2:10 PM 73.9 °F - 64.0 °F 71% 30.04 in 10.0 mi SSE 8.1 mph - N/A   Overcast
2:54 PM 75.9 °F - 64.0 °F 67% 29.95 in 10.0 mi SSE 10.4 mph - N/A   Mostly Cloudy
3:03 PM 77.0 °F - 64.0 °F 64% 30.02 in 10.0 mi SSE 8.1 mph - N/A   Scattered Clouds
3:54 PM 80.1 °F 81.7 °F 64.0 °F 58% 29.91 in 10.0 mi SSE 10.4 mph 20.7 mph N/A   Mostly Cloudy
4:54 PM 82.0 °F 83.1 °F 63.0 °F 52% 29.87 in 10.0 mi South 10.4 mph 20.7 mph N/A   Clear
5:54 PM 81.0 °F 82.5 °F 64.0 °F 56% 29.86 in 10.0 mi SSE 9.2 mph - N/A   Partly Cloudy
6:54 PM 81.0 °F 82.2 °F 63.0 °F 54% 29.84 in 10.0 mi SSE 10.4 mph - N/A   Scattered Clouds
7:54 PM 78.1 °F - 64.0 °F 62% 29.84 in 10.0 mi SSE 6.9 mph - N/A   Clear
8:54 PM 75.0 °F - 64.9 °F 71% 29.85 in 10.0 mi SE 4.6 mph - N/A   Clear
9:54 PM 72.0 °F - 64.9 °F 78% 29.87 in 10.0 mi SE 8.1 mph - N/A   Clear
10:54 PM 71.1 °F - 66.9 °F 87% 29.86 in 8.0 mi ESE 9.2 mph - N/A   Clear
11:54 PM 71.1 °F - 68.0 °F 90% 29.84 in 7.0 mi SE 10.4 mph - N/A   Clear